Milan, Italy

12:51 AM CET on January 20, 2018 (GMT +0100)
Malpensa

Weather History for LIMC - December, 2013

Change the Weather History Date:

Saturday, December 21, 2013

  Actual Average Record
Temperature  
Mean Temperature 38 °F -  
Max Temperature 43 °F 43 °F 86 °F (2014)
Min Temperature 34 °F 25 °F 15 °F (2001)
Degree Days  
Heating Degree Days 26    
Moisture  
Dew Point 40 °F    
Average Humidity 98    
Maximum Humidity 100    
Minimum Humidity 93    
Precipitation  
Precipitation 0.02 in 0.08 in - ()
Sea Level Pressure  
Sea Level Pressure 30.57 in    
Wind  
Wind Speed 2 mph ()    
Max Wind Speed 5 mph    
Max Gust Speed -    
Visibility 2.2 miles    
Events Fog , Rain    
Averages and records for this station are not official NWS values.
T = Trace of Precipitation, MM = Missing Value Source: Averaged Metar Reports

Daily Weather History Graph

Daily Weather History Graph

Search for Another Location

Airport or City:

Trip Planner

Search our weather history database for the weather conditions in past years. The results will help you decide how hot, cold, wet, or windy it might be!

Date:

Astronomy

Dec. 21, 2013 Rise Set
Actual Time 8:02 AM CET 4:43 PM CET
Civil Twilight 7:28 AM CET 5:18 PM CET
Nautical Twilight 6:50 AM CET 5:56 PM CET
Astronomical Twilight 6:14 AM CET 6:32 PM CET
Moon 8:55 PM CET (12/21) 10:10 AM CET (12/21)
Length of Visible Light 9h 50m
Length of Day
8h 41m
Waning Gibbous, 86% of the Moon is Illuminated
Dec 21
Waning Gibbous
Dec 25
Last Quarter
Jan 1
New
Jan 8
First Quarter
Jan 16
Full

Hourly Weather History & Observations

Time (CET) Temp. Windchill Dew Point Humidity Pressure Visibility Wind Dir Wind Speed Gust Speed Precip Events Conditions
12:20 AM 39.2 °F - 39.2 °F 100% 30.54 in 1.6 mi Calm Calm - N/A Fog Patches of Fog
12:50 AM 39.2 °F - 39.2 °F 100% 30.54 in 2.5 mi Variable 2.3 mph - N/A Fog Patches of Fog
1:00 AM 38 °F - 38 °F 100% 30.58 in 2 mi South 2.3 mph - - Fog Patches of Fog
1:20 AM 39.2 °F - 39.2 °F 100% 30.54 in 2.2 mi Variable 2.3 mph - N/A Fog Patches of Fog
1:50 AM 39.2 °F - 39.2 °F 100% 30.54 in 2.2 mi Calm Calm - N/A Fog Patches of Fog
2:50 AM 39.2 °F 37.0 °F 39.2 °F 100% 30.54 in 2.5 mi NW 3.5 mph - N/A Fog Patches of Fog
3:20 AM 37.4 °F - 37.4 °F 100% 30.54 in 2.5 mi Variable 1.2 mph - N/A   Mostly Cloudy
3:50 AM 35.6 °F - 35.6 °F 100% 30.54 in 2.5 mi Variable 2.3 mph - N/A Fog Patches of Fog
4:00 AM 35 °F - 35 °F 99% 30.59 in 2 mi South 3.5 mph - - Fog Patches of Fog
4:20 AM 35.6 °F 32.8 °F 35.6 °F 100% 30.54 in 2.5 mi SSW 3.5 mph - N/A Fog Patches of Fog
4:50 AM 35.6 °F - 35.6 °F 100% 30.54 in 0.2 mi Calm Calm - N/A Fog Fog
5:20 AM 35.6 °F - 33.8 °F 93% 30.54 in 0.1 mi Calm Calm - N/A Fog Fog
5:50 AM 35.6 °F - 35.6 °F 100% 30.57 in 0.1 mi Variable 2.3 mph - N/A Fog Fog
6:20 AM 35.6 °F - 35.6 °F 100% 30.57 in 1.2 mi Variable 2.3 mph - N/A Fog Patches of Fog
6:50 AM 35.6 °F - 35.6 °F 100% 30.57 in 1.2 mi Calm Calm - N/A Fog Patches of Fog
7:00 AM 36 °F - 36 °F 100% 30.62 in 1 mi NNW 1.2 mph - - Fog Patches of Fog
7:20 AM 37.4 °F - 37.4 °F 100% 30.57 in 2.5 mi Variable 2.3 mph - N/A   Mostly Cloudy
7:50 AM 37.4 °F - 37.4 °F 100% 30.57 in 2.5 mi Variable 1.2 mph - N/A   Mostly Cloudy
8:20 AM 39.2 °F - 39.2 °F 100% 30.57 in 3.1 mi Calm Calm - N/A   Mostly Cloudy
8:50 AM 39.2 °F - 39.2 °F 100% 30.60 in 4.3 mi Calm Calm - N/A   Mostly Cloudy
9:20 AM 41.0 °F - 39.2 °F 93% 30.60 in 4.3 mi Calm Calm - N/A   Mostly Cloudy
9:50 AM 41.0 °F - 41.0 °F 100% 30.60 in 4.3 mi Variable 2.3 mph - N/A   Mostly Cloudy
10:00 AM 41 °F - 41 °F 98% 30.64 in 4 mi ESE 2.3 mph - -   Mist
10:20 AM 41.0 °F - 41.0 °F 100% 30.60 in 4.3 mi Variable 1.2 mph - N/A   Mostly Cloudy
10:50 AM 41.0 °F - 41.0 °F 100% 30.63 in 4.3 mi SSE 2.3 mph - N/A   Mostly Cloudy
11:20 AM 41.0 °F - 41.0 °F 100% 30.60 in 6.2 mi Variable 2.3 mph - N/A Fog Patches of Fog
11:50 AM 41.0 °F - 41.0 °F 100% 30.60 in 6.2 mi WSW 2.3 mph - N/A Fog Patches of Fog
12:20 PM 41.0 °F - 41.0 °F 100% 30.60 in 6.2 mi SSE 2.3 mph - N/A Fog Patches of Fog
12:50 PM 42.8 °F - 41.0 °F 93% 30.60 in 6.2 mi Variable 1.2 mph - N/A Fog Patches of Fog
1:00 PM 42 °F - 41 °F 94% 30.62 in 2 mi SSE 1.2 mph - -   Mist
1:20 PM 42.8 °F - 41.0 °F 93% 30.57 in 3.1 mi Variable 2.3 mph - N/A   Mostly Cloudy
1:50 PM 42.8 °F - 41.0 °F 93% 30.57 in 3.1 mi Variable 2.3 mph - N/A   Mostly Cloudy
2:20 PM 42.8 °F 41.1 °F 41.0 °F 93% 30.57 in 2.5 mi ENE 3.5 mph - N/A   Mostly Cloudy
2:50 PM 42.8 °F - 41.0 °F 93% 30.57 in 1.9 mi Variable 2.3 mph - N/A   Mostly Cloudy
3:20 PM 42.8 °F 41.1 °F 42.8 °F 100% 30.57 in 1.9 mi North 3.5 mph - N/A   Light Drizzle
3:50 PM 42.8 °F - 42.8 °F 100% 30.57 in 1.2 mi Variable 1.2 mph - N/A   Light Drizzle
4:00 PM 43 °F - 42 °F 94% 30.61 in 2 mi SW 1.2 mph - - Rain Light Drizzle
4:20 PM 42.8 °F - 42.8 °F 100% 30.57 in 1.1 mi Calm Calm - N/A   Light Drizzle
4:50 PM 42.8 °F - 41.0 °F 93% 30.57 in 0.9 mi SW 2.3 mph - N/A Rain Light Rain
5:20 PM 42.8 °F - 41.0 °F 93% 30.57 in 0.9 mi Calm Calm - N/A Rain Light Rain
5:50 PM 42.8 °F - 41.0 °F 93% 30.57 in 0.9 mi Variable 2.3 mph - N/A Rain Light Rain
6:20 PM 42.8 °F - 41.0 °F 93% 30.57 in 1.1 mi Variable 1.2 mph - N/A Fog , Rain Light Rain
6:50 PM 42.8 °F - 41.0 °F 93% 30.57 in 1.1 mi Variable 2.3 mph - N/A Fog , Rain Light Rain
7:00 PM 42 °F - 42 °F 99% 30.61 in 1 mi NNW 2.3 mph - - Rain Light Rain
7:20 PM 42.8 °F - 42.8 °F 100% 30.57 in 1.1 mi Variable 1.2 mph - N/A Fog , Rain Light Rain
7:50 PM 42.8 °F - 42.8 °F 100% 30.57 in 1.1 mi Variable 2.3 mph - N/A Fog , Rain Light Rain
8:20 PM 42.8 °F - 41.0 °F 93% 30.57 in 1.1 mi Calm Calm - N/A Fog Drizzle
8:50 PM 42.8 °F - 41.0 °F 93% 30.57 in 0.7 mi Variable 2.3 mph - N/A Fog Light Drizzle
9:20 PM 42.8 °F - 42.8 °F 100% 30.57 in 1.1 mi NNW 2.3 mph - N/A Fog Light Drizzle
9:50 PM 42.8 °F - 42.8 °F 100% 30.57 in 1.1 mi Variable 1.2 mph - N/A Fog Patches of Fog
10:00 PM 42 °F - 42 °F 100% 30.60 in 1 mi NNW 2.3 mph - - Rain Light Rain
10:20 PM 42.8 °F 40.1 °F 42.8 °F 100% 30.57 in 1.1 mi NW 4.6 mph - N/A Fog Patches of Fog
10:50 PM 42.8 °F 41.1 °F 42.8 °F 100% 30.57 in 1.2 mi North 3.5 mph - N/A Fog Patches of Fog
11:20 PM 42.8 °F - 42.8 °F 100% 30.54 in 2.2 mi NNE 2.3 mph - N/A Fog Patches of Fog
11:50 PM 42.8 °F - 42.8 °F 100% 30.54 in 1.2 mi NW 2.3 mph - N/A Fog Patches of Fog